TimeCDT,TemperatureF,Dew PointF,Humidity,Sea Level PressureIn,VisibilityMPH,Wind Direction,Wind SpeedMPH,Gust SpeedMPH,PrecipitationIn,Events,Conditions,WindDirDegrees,DateUTC
12:15 AM,44.6,37.4,76,29.79,10.0,East,3.5,-,N/A,Rain,Light Rain,90,2013-03-24 05:15:00
12:35 AM,44.6,37.4,76,29.80,10.0,Calm,Calm,-,0.01,Rain,Light Rain,0,2013-03-24 05:35:00
12:55 AM,42.8,37.4,81,29.80,7.0,NNE,3.5,-,0.02,Rain,Rain,20,2013-03-24 05:55:00
1:15 AM,42.8,37.4,81,29.79,7.0,ENE,3.5,-,0.01,Rain,Rain,70,2013-03-24 06:15:00
1:35 AM,42.8,37.4,81,29.78,10.0,NNE,3.5,-,0.02,Rain,Rain,30,2013-03-24 06:35:00
1:55 AM,42.8,35.6,76,29.77,10.0,NE,8.1,-,0.02,,Drizzle,50,2013-03-24 06:55:00
2:15 AM,41.0,35.6,81,29.77,7.0,NE,10.4,-,N/A,Rain,Light Rain,50,2013-03-24 07:15:00
2:35 AM,41.0,35.6,81,29.76,7.0,NNE,11.5,-,0.02,,Drizzle,30,2013-03-24 07:35:00
2:55 AM,39.2,35.6,87,29.75,7.0,NE,12.7,-,0.03,Rain,Light Rain,50,2013-03-24 07:55:00
3:15 AM,37.4,35.6,93,29.74,5.0,NNE,12.7,17.3,0.02,Rain,Rain,30,2013-03-24 08:15:00
3:35 AM,37.4,35.6,93,29.72,5.0,NE,12.7,16.1,0.02,,Light Drizzle,40,2013-03-24 08:35:00
3:55 AM,37.4,35.6,93,29.71,4.0,NE,13.8,18.4,0.02,,Drizzle,50,2013-03-24 08:55:00
4:15 AM,37.4,35.6,93,29.70,5.0,NE,12.7,19.6,N/A,,Overcast,50,2013-03-24 09:15:00
4:35 AM,37.4,35.6,93,29.70,5.0,NE,11.5,-,N/A,,Overcast,40,2013-03-24 09:35:00
4:55 AM,37.4,35.6,93,29.71,5.0,NNE,11.5,18.4,N/A,,Overcast,30,2013-03-24 09:55:00
5:15 AM,37.4,35.6,93,29.72,5.0,NNE,13.8,17.3,N/A,,Overcast,30,2013-03-24 10:15:00
5:35 AM,37.4,35.6,93,29.71,5.0,NE,11.5,16.1,N/A,,Light Drizzle,40,2013-03-24 10:35:00
5:55 AM,37.4,35.6,93,29.68,4.0,NE,11.5,-,N/A,,Overcast,50,2013-03-24 10:55:00
6:15 AM,37.4,35.6,93,29.70,4.0,NE,10.4,-,N/A,,Overcast,50,2013-03-24 11:15:00
6:35 AM,37.4,35.6,93,29.69,5.0,NE,11.5,19.6,N/A,,Overcast,50,2013-03-24 11:35:00
6:55 AM,37.4,35.6,93,29.68,4.0,ENE,12.7,-,N/A,,Overcast,60,2013-03-24 11:55:00
7:15 AM,37.4,35.6,93,29.67,4.0,ENE,10.4,-,N/A,,Overcast,60,2013-03-24 12:15:00
7:35 AM,37.4,35.6,93,29.65,4.0,ENE,11.5,-,N/A,,Overcast,70,2013-03-24 12:35:00
7:55 AM,37.4,35.6,93,29.63,5.0,NE,15.0,18.4,N/A,,Overcast,50,2013-03-24 12:55:00
8:15 AM,37.4,35.6,93,29.63,5.0,ENE,11.5,17.3,N/A,,Overcast,60,2013-03-24 13:15:00
8:35 AM,37.4,35.6,93,29.63,5.0,East,11.5,-,N/A,,Overcast,80,2013-03-24 13:35:00
8:55 AM,37.4,35.6,93,29.63,5.0,ENE,15.0,-,N/A,,Overcast,70,2013-03-24 13:55:00
9:15 AM,37.4,35.6,93,29.58,5.0,ENE,16.1,21.9,N/A,,Overcast,70,2013-03-24 14:15:00
9:35 AM,37.4,35.6,93,29.54,5.0,ENE,13.8,21.9,N/A,,Overcast,70,2013-03-24 14:35:00
9:55 AM,37.4,35.6,93,29.53,5.0,East,17.3,20.7,N/A,,Overcast,90,2013-03-24 14:55:00
10:15 AM,37.4,35.6,93,29.51,5.0,East,17.3,23.0,N/A,,Overcast,90,2013-03-24 15:15:00
10:35 AM,37.4,35.6,93,29.50,5.0,East,17.3,23.0,N/A,,Overcast,100,2013-03-24 15:35:00
10:55 AM,37.4,35.6,93,29.46,5.0,East,19.6,28.8,N/A,Thunderstorm,Overcast,90,2013-03-24 15:55:00
11:15 AM,37.4,35.6,93,29.46,5.0,East,19.6,24.2,N/A,Thunderstorm,Overcast,100,2013-03-24 16:15:00
11:35 AM,37.4,35.6,93,29.53,7.0,South,5.8,13.8,N/A,Rain-Thunderstorm,Rain,180,2013-03-24 16:35:00
11:55 AM,37.4,35.6,93,29.49,5.0,ENE,4.6,-,0.02,Rain,Light Rain,60,2013-03-24 16:55:00
12:15 PM,37.4,35.6,93,29.50,1.0,NNW,4.6,-,0.07,Rain,Rain,330,2013-03-24 17:15:00
12:35 PM,35.6,35.6,100,29.52,2.5,Calm,Calm,-,0.09,Rain-Thunderstorm,Light Thunderstorms and Rain,0,2013-03-24 17:35:00
12:55 PM,35.6,35.6,100,29.49,1.8,North,4.6,-,0.11,Rain-Thunderstorm,Thunderstorms and Rain,350,2013-03-24 17:55:00
1:15 PM,35.6,35.6,100,29.49,1.5,North,5.8,-,0.03,Rain,Rain,350,2013-03-24 18:15:00
1:35 PM,35.6,35.6,100,29.47,2.0,North,8.1,-,0.04,Rain,Light Rain,350,2013-03-24 18:35:00
1:55 PM,35.6,35.6,100,29.49,3.0,WNW,5.8,-,0.04,,Overcast,290,2013-03-24 18:55:00
2:15 PM,35.6,35.6,100,29.48,3.0,NW,5.8,-,N/A,,Light Drizzle,310,2013-03-24 19:15:00
2:35 PM,35.6,35.6,100,29.47,3.0,WNW,8.1,-,N/A,,Light Drizzle,300,2013-03-24 19:35:00
2:55 PM,35.6,35.6,100,29.47,4.0,WNW,6.9,-,N/A,,Overcast,300,2013-03-24 19:55:00
3:15 PM,35.6,35.6,100,29.47,4.0,WNW,5.8,-,N/A,,Overcast,290,2013-03-24 20:15:00
3:35 PM,35.6,35.6,100,29.47,4.0,West,11.5,-,N/A,,Overcast,280,2013-03-24 20:35:00
3:55 PM,35.6,35.6,100,29.48,5.0,WNW,13.8,18.4,N/A,,Overcast,290,2013-03-24 20:55:00
4:15 PM,35.6,33.8,93,29.49,4.0,West,12.7,-,N/A,Rain,Light Rain,280,2013-03-24 21:15:00
4:35 PM,35.6,33.8,93,29.48,4.0,West,11.5,-,N/A,,Overcast,270,2013-03-24 21:35:00
4:55 PM,35.6,33.8,93,29.49,7.0,West,13.8,-,N/A,Rain,Light Rain,270,2013-03-24 21:55:00
5:15 PM,33.8,33.8,100,29.50,10.0,West,17.3,20.7,N/A,Rain,Light Rain,270,2013-03-24 22:15:00
5:35 PM,33.8,33.8,100,29.51,7.0,West,18.4,27.6,N/A,,Overcast,280,2013-03-24 22:35:00
5:55 PM,33.8,33.8,100,29.52,7.0,West,21.9,25.3,N/A,Rain,Light Rain,280,2013-03-24 22:55:00
6:15 PM,33.8,32.0,93,29.53,10.0,West,19.6,29.9,N/A,,Overcast,270,2013-03-24 23:15:00
6:35 PM,33.8,32.0,93,29.54,10.0,West,21.9,27.6,N/A,,Overcast,280,2013-03-24 23:35:00
6:55 PM,33.8,32.0,93,29.55,7.0,West,19.6,28.8,N/A,,Overcast,280,2013-03-24 23:55:00
7:15 PM,33.8,32.0,93,29.56,5.0,West,23.0,31.1,N/A,Snow,Light Snow,280,2013-03-25 00:15:00
7:35 PM,32.0,32.0,100,29.58,4.0,West,20.7,32.2,N/A,Snow,Light Snow,280,2013-03-25 00:35:00
7:55 PM,32.0,32.0,100,29.58,4.0,WNW,20.7,27.6,N/A,Snow,Light Snow,290,2013-03-25 00:55:00
8:15 PM,32.0,32.0,100,29.60,4.0,WNW,18.4,27.6,N/A,Snow,Light Snow,290,2013-03-25 01:15:00
8:35 PM,32.0,32.0,100,29.60,4.0,West,18.4,27.6,N/A,Snow,Light Snow,280,2013-03-25 01:35:00
8:55 PM,32.0,32.0,100,29.62,4.0,WNW,23.0,31.1,N/A,Snow,Light Snow,290,2013-03-25 01:55:00
9:15 PM,32.0,32.0,100,29.63,5.0,WNW,19.6,33.4,N/A,,Overcast,290,2013-03-25 02:15:00
9:35 PM,32.0,32.0,100,29.64,5.0,WNW,23.0,28.8,N/A,Snow,Light Snow,290,2013-03-25 02:35:00
9:55 PM,32.0,32.0,100,29.65,4.0,WNW,19.6,27.6,N/A,Snow,Light Snow,290,2013-03-25 02:55:00
10:15 PM,32.0,32.0,100,29.66,4.0,WNW,20.7,29.9,N/A,Snow,Light Snow,300,2013-03-25 03:15:00
10:35 PM,32.0,32.0,100,29.68,3.0,WNW,19.6,26.5,N/A,Snow,Light Snow,290,2013-03-25 03:35:00
10:55 PM,32.0,32.0,100,29.68,3.0,WNW,18.4,25.3,N/A,Snow,Light Snow,290,2013-03-25 03:55:00
11:15 PM,32.0,32.0,100,29.70,5.0,WNW,19.6,25.3,N/A,,Overcast,300,2013-03-25 04:15:00
11:35 PM,32.0,32.0,100,29.71,5.0,WNW,13.8,23.0,N/A,Snow,Light Snow,300,2013-03-25 04:35:00
11:55 PM,32.0,32.0,100,29.72,5.0,WNW,15.0,-,N/A,Snow,Light Snow,290,2013-03-25 04:55:00